This is the latest recevied weather packets stored in our database for station/object KB1FFS. If no packets are shown the sender has not sent any weather packets the latest 10 day(s).
| Time | Temp. | Humidity | Pressure | Rain* | Wind** | Luminosity | Snow |
|---|---|---|---|---|---|---|---|
| 1777728523 | 15° C | 81% | 1022.9 hPa | 0 mm | - | 37 W/m² | - |
| 1777728220 | 14.44° C | 82% | 1022.8 hPa | 0 mm | - | 36 W/m² | - |
| 1777727917 | 13.89° C | 85% | 1022.9 hPa | 0 mm | - | 35 W/m² | - |
| 1777727311 | 12.78° C | 93% | 1022.8 hPa | 0 mm | - | 33 W/m² | - |
| 1777727009 | 12.22° C | 94% | 1023 hPa | 0 mm | - | 32 W/m² | - |
| 1777726706 | 11.67° C | 95% | 1022.9 hPa | 0 mm | - | 32 W/m² | - |
| 1777725494 | 10° C | 94% | 1022.7 hPa | 0 mm | - | 25 W/m² | - |
| 1777724283 | 8.89° C | 93% | 1022.1 hPa | 0 mm | - | 18 W/m² | - |
| 1777723980 | 8.89° C | 93% | 1022.1 hPa | 0 mm | - | 16 W/m² | - |
| 1777723677 | 8.89° C | 93% | 1022 hPa | 0 mm | - | 14 W/m² | - |
| 1777723373 | 8.89° C | 93% | 1021.7 hPa | 0 mm | - | 11 W/m² | - |
| 1777723071 | 8.33° C | 93% | 1021.8 hPa | 0 mm | - | 9 W/m² | - |
| 1777722768 | 8.33° C | 93% | 1021.7 hPa | 0 mm | - | 7 W/m² | - |
| 1777722464 | 8.33° C | 93% | 1021.6 hPa | 0 mm | - | 5 W/m² | - |
| 1777722161 | 8.33° C | 93% | 1021.5 hPa | 0 mm | - | 3 W/m² | - |
| 1777721858 | 8.33° C | 93% | 1021.4 hPa | 0 mm | - | 1 W/m² | - |
| 1777721556 | 8.33° C | 92% | 1021.3 hPa | 0 mm | - | 1 W/m² | - |
| 1777721254 | 8.89° C | 92% | 1021.3 hPa | 0 mm | - | 0 W/m² | - |
| 1777720951 | 8.89° C | 92% | 1021.3 hPa | 0 mm | - | 0 W/m² | - |
| 1777720648 | 8.89° C | 92% | 1021.2 hPa | 0 mm | - | 0 W/m² | - |
| 1777720345 | 8.89° C | 92% | 1021 hPa | 0 mm | - | 0 W/m² | - |
| 1777720043 | 8.89° C | 92% | 1020.9 hPa | 0 mm | - | 0 W/m² | - |
| 1777719741 | 8.89° C | 92% | 1020.9 hPa | 0 mm | - | 0 W/m² | - |
| 1777719438 | 8.89° C | 92% | 1020.9 hPa | 0 mm | - | 0 W/m² | - |
| 1777719134 | 8.89° C | 92% | 1020.7 hPa | 0 mm | - | 0 W/m² | - |
* Rain latest hour (hover to see other rain measurements)
** Current wind speed in m/s (hover to see current wind gust speed)